Theta_e
310 310 310 310 310 309 309 309 309 309 309 309 310 310 310 310 309 315 315 314 313 313 315 315 316 317 318 320 319 320 321 321 321 320 319 319 318 319 318 318 319 319 319 319 317
312 311 311 310 310 310 310 309 309 309 308 308 309 309 310 310 313 316 314 311 310 312 316 317 318 317 320 320 321 321 322 320 320 319 318 318 318 318 318 318 318 319 319 318 316
314 314 313 313 313 312 312 312 312 311 311 310 309 307 308 310 317 314 313 312 311 313 316 316 317 318 319 320 321 321 320 319 319 319 318 317 317 317 317 318 317 318 318 319 318
315 315 314 315 315 316 315 316 315 314 314 313 312 311 306 313 315 311 314 313 311 314 315 315 317 318 318 319 319 320 319 319 319 319 317 318 317 317 317 317 317 318 318 318 318
315 315 315 315 316 317 318 319 318 316 315 314 313 311 310 314 314 312 311 312 312 314 315 316 317 317 318 317 318 319 318 317 318 318 318 318 317 317 317 317 317 317 317 317 317
315 315 316 317 318 319 320 321 321 319 318 316 313 310 315 316 311 312 311 312 314 314 315 315 316 316 317 316 316 317 317 317 316 316 316 316 317 316 316 316 316 316 316 316 316
316 316 317 319 320 320 321 323 321 320 317 315 311 310 313 316 312 315 313 316 314 314 315 315 315 316 316 317 316 316 315 315 316 316 316 315 316 316 316 316 316 315 316 316 316
317 318 319 320 322 323 323 323 320 315 311 310 309 315 313 309 311 309 312 312 313 313 313 313 313 315 315 316 315 315 316 316 317 315 315 314 315 316 316 315 315 314 315 316 316
318 319 320 322 323 323 323 322 317 311 311 308 315 315 314 308 310 310 311 312 312 311 311 310 313 315 315 315 315 316 317 318 318 317 314 315 315 315 315 315 315 316 316 315 315
319 320 321 323 323 323 322 320 312 313 314 312 312 312 311 312 310 309 309 311 312 312 312 313 314 315 315 315 317 319 319 318 318 317 316 316 316 316 316 316 316 316 315 315 315
321 322 323 324 324 323 322 316 321 321 317 322 323 318 320 311 309 310 309 310 312 313 314 314 314 315 316 317 316 316 316 317 316 316 316 317 316 315 315 315 315 316 316 315 315
323 323 323 323 323 324 319 320 315 313 323 321 319 317 315 311 315 311 309 312 312 314 314 314 315 316 316 316 314 315 315 316 316 317 316 316 315 314 314 316 316 316 315 315 313
323 323 323 323 322 321 318 315 312 310 321 322 315 315 313 311 319 319 310 313 314 316 315 317 319 317 314 315 315 316 316 316 316 315 314 314 315 316 317 319 315 313 313 312 311
324 323 321 322 322 322 319 316 311 310 325 324 315 310 308 311 312 308 308 311 313 316 316 317 313 312 313 314 314 315 315 314 313 313 315 313 316 317 319 319 313 312 310 309 308
322 321 321 321 324 323 315 316 311 310 332 317 310 308 309 310 310 310 307 310 313 314 313 315 312 312 313 313 313 314 312 312 312 313 314 315 316 319 320 316 313 311 309 307 305
320 319 320 320 320 318 318 319 314 325 331 323 311 312 311 309 309 310 310 309 310 311 312 313 310 311 314 312 311 311 311 313 314 314 320 320 320 320 316 314 311 309 307 306 304
317 318 318 318 321 319 319 321 327 328 324 324 316 312 315 313 311 311 313 314 318 320 320 317 317 319 311 314 312 310 313 323 325 323 324 316 322 319 316 311 310 308 307 305 303
311 311 312 317 318 318 320 325 327 321 322 323 321 318 322 319 320 316 318 321 319 318 321 320 318 317 311 313 315 314 316 323 328 326 326 321 322 321 313 309 309 308 306 304 302
305 307 310 311 317 318 322 327 322 319 319 321 321 322 322 321 320 321 320 320 318 318 319 318 318 312 309 309 311 316 316 316 324 322 323 318 317 317 311 310 309 307 305 302 301
307 308 309 308 315 316 319 320 318 316 319 320 321 318 318 319 318 317 316 315 313 309 311 317 320 318 314 308 309 309 309 316 316 322 321 317 317 317 313 311 309 306 303 301 299
305 308 307 310 314 314 316 313 311 312 314 318 317 317 315 315 316 316 317 317 317 315 312 317 318 318 314 314 315 312 311 310 312 317 321 321 317 314 312 311 308 303 300 299 298
305 308 308 312 313 313 313 311 309 312 312 313 315 315 315 314 314 314 315 314 315 312 314 314 316 318 315 312 313 313 314 314 316 316 316 317 317 315 308 306 302 301 299 297 295
305 306 308 311 313 314 311 311 311 312 312 312 314 314 313 313 313 311 311 312 313 313 315 314 315 316 313 308 312 315 314 314 316 315 318 321 320 311 308 303 299 299 296 294 294
304 305 307 308 311 310 310 310 311 310 310 310 310 310 311 310 310 310 309 313 312 311 308 311 313 315 315 309 310 313 311 313 313 314 313 313 313 310 308 308 307 299 296 294 293
302 302 305 309 309 309 308 307 307 308 308 308 308 308 308 308 308 308 308 308 308 304 307 308 310 308 309 309 308 308 307 308 307 308 309 308 308 306 305 302 297 293 292 292 293
300 301 301 304 306 308 308 307 307 306 306 306 307 308 308 309 309 309 307 306 305 303 303 303 304 304 305 303 303 304 304 304 304 304 303 303 304 303 298 296 296 295 292 291 291
295 296 300 301 303 305 307 306 305 305 303 302 303 304 304 304 303 301 301 301 301 301 301 301 301 302 302 300 300 301 300 300 300 300 301 301 300 296 295 293 292 292 291 291 290
Wind_Speed
4 5 5 6 6 6 6 7 8 9 9 10 10 11 13 15 17 9 10 6 6 10 10 9 7 6 5 3 3 2 5 8 10 8 4 3 5 6 3 10 9 7 12 10 2
6 6 6 7 8 8 9 9 10 11 11 11 12 12 12 16 14 14 11 8 7 12 11 12 8 8 5 3 3 6 8 10 7 9 9 10 9 12 11 13 16 15 18 16 9
6 7 7 8 8 9 10 11 12 13 13 13 13 12 11 12 9 1 1 4 7 13 8 10 6 8 9 6 6 6 10 13 12 12 14 13 14 15 13 18 17 16 9 12 10
6 7 7 8 9 9 10 12 13 13 14 13 13 11 8 3 6 1 2 3 9 12 9 8 7 6 7 9 9 10 14 15 16 9 7 14 17 14 14 23 20 21 20 18 16
4 5 6 8 9 11 11 13 14 14 15 15 12 10 2 6 8 7 6 4 11 11 12 10 10 10 11 8 9 15 15 17 15 14 14 17 21 20 21 22 24 22 19 18 16
4 4 5 7 9 11 13 15 16 16 17 15 12 7 3 11 4 5 4 8 9 13 13 13 5 8 12 13 12 11 11 17 20 19 15 17 21 16 25 16 19 16 16 16 16
3 3 5 6 9 11 14 17 17 17 15 13 9 4 6 12 3 2 3 4 6 9 10 12 6 7 5 10 7 10 13 17 22 21 13 5 15 14 19 13 15 16 17 16 13
4 3 5 7 10 13 17 19 20 13 10 8 4 4 7 3 0 2 4 1 4 5 6 3 7 8 8 7 6 10 15 15 12 2 3 8 16 16 9 10 13 18 21 20 22
5 4 5 6 10 13 17 18 14 7 6 4 2 4 5 2 1 0 3 4 5 4 2 2 5 8 8 10 13 14 16 19 15 13 2 11 13 12 20 20 22 25 23 20 20
7 7 6 8 11 14 17 15 6 3 2 2 1 4 4 2 2 2 1 8 3 7 5 6 6 8 10 12 14 18 20 20 15 14 15 18 23 20 20 23 24 23 20 18 15
8 9 9 12 14 13 14 6 4 5 5 5 8 8 12 2 1 2 1 5 5 7 6 9 8 10 15 16 20 22 22 24 22 20 23 24 24 20 19 24 25 19 13 6 9
11 10 10 13 14 10 7 4 3 2 9 12 14 9 6 3 4 3 5 7 5 9 6 3 12 15 16 16 13 18 22 23 21 18 16 20 23 25 23 21 15 12 10 3 10
12 11 9 6 6 3 3 2 2 3 6 3 2 3 0 4 5 2 5 2 8 12 10 16 16 15 10 13 17 20 18 21 24 18 18 18 19 10 10 17 5 10 13 15 16
14 10 5 5 2 0 1 2 2 0 5 4 2 2 2 2 2 1 1 2 3 6 7 11 6 5 10 12 16 18 16 14 15 12 9 7 9 16 18 13 15 19 15 14 15
10 7 7 4 2 2 3 1 2 2 6 2 3 2 2 3 4 2 3 5 5 4 3 1 1 3 7 10 11 13 6 10 10 12 16 13 9 6 13 5 14 15 13 13 14
9 7 5 3 3 3 3 2 2 4 7 2 3 2 3 4 3 4 4 5 1 4 8 12 4 4 7 7 8 8 9 14 16 8 8 12 11 5 5 10 9 14 13 12 12
9 7 7 4 0 4 4 3 4 6 3 4 1 3 3 4 4 5 6 7 7 7 10 6 13 13 6 9 8 7 8 6 5 6 7 4 7 9 8 8 10 10 10 10 11
8 6 4 4 5 5 3 3 8 3 9 5 2 3 4 3 5 4 6 13 9 8 7 8 11 5 9 10 5 7 4 4 6 10 15 14 8 8 10 12 11 10 10 9 10
6 4 2 4 7 6 3 7 6 9 11 6 5 8 15 10 5 5 11 13 5 7 7 5 6 3 5 1 2 4 6 5 2 3 5 9 17 16 13 11 11 9 7 7 7
4 3 5 8 12 5 5 9 9 7 1 7 11 9 11 8 8 5 8 3 3 3 4 2 7 5 2 1 7 3 4 3 4 5 11 14 19 14 13 12 9 7 6 6 7
5 2 3 10 13 4 8 8 10 10 6 7 11 15 14 13 10 12 6 3 4 5 3 3 4 5 4 7 12 6 6 5 5 8 11 15 13 9 10 8 4 5 6 7 8
4 3 5 21 6 5 11 6 3 7 6 10 6 13 14 9 9 15 16 13 6 4 4 9 4 8 21 21 20 16 18 17 12 13 10 14 18 8 13 5 4 3 4 3 4
4 3 7 8 8 11 9 9 11 8 8 6 7 9 7 10 6 11 13 2 5 2 2 3 2 4 9 12 5 3 5 7 9 4 13 14 7 9 7 5 2 5 3 2 3
4 5 3 3 8 9 15 13 13 6 10 11 8 8 11 12 11 7 6 3 3 3 4 3 4 11 14 18 18 15 14 11 7 5 13 14 20 28 24 17 13 9 4 4 2
3 4 3 7 9 14 10 4 11 10 9 5 7 17 13 9 12 16 15 8 3 2 2 3 9 13 17 18 17 17 17 24 24 23 20 24 24 23 20 12 2 2 2 4 6
2 3 2 1 9 17 15 12 15 10 6 9 12 7 7 6 8 3 4 4 9 4 3 2 9 9 14 16 18 20 24 24 23 24 25 24 26 22 6 3 4 4 4 5 6
2 1 3 4 6 8 13 16 11 11 5 7 6 5 6 9 2 2 3 5 6 4 7 4 5 5 15 14 15 12 20 22 23 25 24 22 13 6 3 3 6 8 9 10 10
Wind_Direction
3 2 357 356 353 350 343 336 332 327 326 325 326 328 329 326 321 307 262 246 222 202 169 165 186 199 210 219 234 275 254 264 273 266 281 148 266 149 307 280 255 234 275 337 87
356 353 356 355 354 349 342 337 331 326 325 323 321 320 324 327 314 273 264 251 231 188 172 185 196 196 221 231 210 229 247 274 279 285 279 297 271 290 285 271 270 259 245 253 235
360 360 0 359 355 349 344 338 333 329 328 327 326 323 323 331 293 68 307 201 196 183 211 219 252 215 250 258 221 222 251 275 291 283 292 284 286 279 260 271 271 281 289 290 268
344 349 354 357 358 354 348 345 338 328 322 319 319 321 323 320 302 66 293 248 182 178 190 189 202 220 250 238 254 265 254 270 286 296 286 273 287 277 266 266 284 287 292 292 284
330 342 347 351 351 348 346 343 332 322 316 311 310 312 328 241 259 278 283 191 180 186 205 209 226 239 257 269 283 248 273 278 282 280 269 280 271 274 272 277 281 283 283 275 263
318 335 342 346 347 348 342 336 328 321 313 305 298 290 246 262 276 265 235 184 187 199 216 216 231 261 288 277 260 312 292 282 278 273 265 268 274 283 273 271 280 282 282 273 266
293 318 333 343 348 348 341 331 325 320 312 302 284 218 247 257 237 242 173 180 202 217 231 231 258 233 326 263 287 281 292 294 282 269 256 257 271 244 268 267 275 288 285 290 278
281 306 331 344 352 349 341 330 325 323 324 307 246 184 260 244 238 251 224 199 207 209 233 243 224 260 251 285 256 271 271 275 286 67 160 195 276 292 338 321 287 281 286 287 285
274 295 320 335 342 343 337 329 323 332 6 75 128 235 263 22 98 223 209 233 161 164 133 140 203 239 224 245 274 247 269 279 294 302 31 212 281 293 311 296 287 281 287 292 293
273 285 301 317 329 334 333 325 317 317 348 43 229 234 194 10 97 96 124 163 164 154 152 189 206 230 237 250 253 282 289 298 284 286 279 273 276 293 295 294 279 280 290 292 295
265 280 296 308 313 326 336 306 239 209 223 275 289 281 311 45 136 95 136 168 157 203 215 193 223 222 249 255 263 280 286 285 288 292 290 288 294 297 287 279 283 287 305 306 49
260 275 293 306 311 324 343 351 31 347 292 264 262 274 274 283 286 158 167 200 208 239 195 194 245 258 275 276 288 279 280 283 285 292 306 298 291 291 286 276 283 295 312 66 98
260 272 280 312 351 9 48 64 326 346 262 256 228 258 274 227 252 251 224 240 231 254 230 257 274 298 287 266 269 267 276 287 296 311 299 292 286 256 278 298 28 38 83 79 65
248 248 249 305 294 136 132 311 358 194 273 155 167 116 147 221 172 347 227 268 218 294 290 267 342 306 282 267 269 282 298 313 307 311 295 19 292 297 275 266 80 94 71 73 68
211 232 263 239 326 236 141 326 337 273 287 67 124 119 145 246 116 120 208 169 237 239 247 37 68 319 274 275 287 282 338 311 298 280 285 271 251 291 285 183 114 91 74 63 58
210 216 221 247 214 198 185 305 260 232 246 164 119 163 197 181 183 133 217 256 336 234 217 251 176 229 246 291 251 314 287 276 262 270 263 277 252 282 48 108 115 97 81 63 49
192 183 193 193 39 190 176 226 243 233 132 160 165 182 264 182 201 214 190 199 260 284 264 236 241 264 213 266 205 222 272 307 281 212 269 60 333 264 343 84 120 110 90 74 66
187 182 206 180 201 150 198 195 234 264 244 110 159 174 247 165 241 226 275 267 269 240 286 278 291 206 164 221 315 193 253 221 278 288 294 319 261 252 128 117 111 111 98 82 63
181 171 197 218 182 175 221 219 227 225 240 248 219 269 258 237 242 285 257 279 322 211 246 287 243 99 211 342 272 161 223 276 215 220 269 250 267 266 140 142 135 119 95 70 63
150 174 214 201 168 174 230 244 242 246 247 249 239 244 261 220 223 230 273 76 174 240 225 56 287 260 276 219 225 244 359 203 168 256 260 262 279 270 208 178 154 121 72 37 27
141 216 180 164 146 189 226 237 258 251 246 241 251 261 266 266 262 257 250 192 217 195 250 171 201 249 276 219 253 232 249 228 289 247 259 271 268 304 67 116 130 56 31 19 15
145 227 163 154 177 203 222 218 239 211 204 245 277 261 258 262 271 255 252 254 101 137 219 197 251 256 270 286 281 274 268 266 255 250 227 251 251 283 25 88 55 7 1 25 26
186 171 192 205 215 218 228 228 233 198 211 198 235 234 245 247 253 247 252 4 22 285 341 34 235 286 288 285 53 30 350 321 298 275 248 261 270 32 10 5 357 332 290 312 344
172 173 165 235 255 242 221 233 219 214 237 234 242 258 249 247 242 255 247 104 58 87 101 116 237 242 264 275 303 297 306 272 241 266 291 278 286 293 287 279 255 276 223 235 242
228 200 165 201 220 223 228 240 223 214 215 223 248 238 235 241 249 254 257 260 200 108 169 247 256 265 269 278 290 291 283 272 270 270 267 279 282 283 298 324 24 179 238 264 261
234 189 192 199 213 213 218 229 226 197 196 215 236 172 175 238 235 339 13 232 255 231 234 199 260 286 274 273 269 268 266 268 274 275 273 273 271 275 353 327 296 318 332 326 308
189 217 273 151 188 201 215 227 235 240 189 253 271 236 244 255 304 355 280 288 266 246 253 240 252 258 264 280 298 277 255 261 261 266 269 275 302 31 42 326 331 331 324 316 319